Location: Hopville
(44.8032°N, 123.1329°W)
Time: 17:24:29
(UTC+00:00)

SL-4 R/B - Pass Details

Date: 24 January 2021
Orbit: 427 x 664 km, 51.6° (Epoch: 01 March)

Event Time Altitude Azimuth Distance (km) Brightness Sun altitude
Exits shadow 13:11:47 35° 131° (SE) 813 3.2 -26.1°
Drops below altitude 10° 13:15:12 10° 72° (ENE) 1,749 5.5 -25.5°
Sets 13:17:37 0° 64° (ENE) 2,689 6.5 -25.1°
